Time,TemperatureF,DewpointF,PressureIn,WindDirection,WindDirectionDegrees,WindSpeedMPH,WindSpeedGustMPH,Humidity,HourlyPrecipIn,Conditions,Clouds,dailyrainin,SolarRadiationWatts/m^2,SoftwareType,DateUTC
2013-07-10 00:00:00,81.8,70.6,29.87,NNE,15,0.0,0.0,69,0.00,,,0.00,0,Wunderground v.1.15,2013-07-10 05:00:00,
2013-07-10 00:09:00,81.4,70.7,29.88,North,11,0.0,0.0,70,0.00,,,0.00,0,Wunderground v.1.15,2013-07-10 05:09:00,
2013-07-10 00:20:00,81.2,70.1,29.89,North,360,0.0,0.0,69,0.00,,,0.00,0,Wunderground v.1.15,2013-07-10 05:20:00,
2013-07-10 00:30:00,81.1,70.0,29.89,North,9,1.0,3.0,69,0.00,,,0.00,0,Wunderground v.1.15,2013-07-10 05:30:00,
2013-07-10 00:40:00,80.9,69.8,29.89,North,5,0.0,0.0,69,0.00,,,0.00,0,Wunderground v.1.15,2013-07-10 05:40:00,
2013-07-10 00:50:00,80.5,69.8,29.88,North,5,0.0,0.0,70,0.00,,,0.00,0,Wunderground v.1.15,2013-07-10 05:50:00,
2013-07-10 01:00:00,80.1,69.4,29.88,NNE,16,1.0,3.0,70,0.00,,,0.00,0,Wunderground v.1.15,2013-07-10 06:00:00,
2013-07-10 01:10:00,79.9,69.2,29.88,North,5,1.0,1.0,70,0.00,,,0.00,0,Wunderground v.1.15,2013-07-10 06:10:00,
2013-07-10 01:20:00,79.8,69.1,29.88,NNE,27,1.0,1.0,70,0.00,,,0.00,0,Wunderground v.1.15,2013-07-10 06:20:00,
2013-07-10 01:29:00,79.6,69.0,29.88,NNE,26,0.0,0.0,70,0.00,,,0.00,0,Wunderground v.1.15,2013-07-10 06:29:00,
2013-07-10 01:40:00,79.4,68.8,29.89,NNE,24,0.0,0.0,70,0.00,,,0.00,0,Wunderground v.1.15,2013-07-10 06:40:00,
2013-07-10 01:50:00,79.0,68.4,29.91,NE,39,1.0,5.0,70,0.00,,,0.00,0,Wunderground v.1.15,2013-07-10 06:50:00,
2013-07-10 02:00:00,79.0,68.4,29.91,NE,34,0.0,0.0,70,0.00,,,0.00,0,Wunderground v.1.15,2013-07-10 07:00:00,
2013-07-10 02:09:00,78.5,68.3,29.91,NE,39,0.0,3.0,71,0.00,,,0.00,0,Wunderground v.1.15,2013-07-10 07:09:00,
2013-07-10 02:20:00,78.3,68.1,29.92,NNE,23,0.0,0.0,71,0.00,,,0.00,0,Wunderground v.1.15,2013-07-10 07:20:00,
2013-07-10 02:30:00,78.1,67.9,29.92,NE,34,0.0,0.0,71,0.00,,,0.00,0,Wunderground v.1.15,2013-07-10 07:30:00,
2013-07-10 02:40:00,77.9,68.1,29.93,NNE,30,0.0,0.0,72,0.00,,,0.00,0,Wunderground v.1.15,2013-07-10 07:40:00,
2013-07-10 02:50:00,77.7,68.4,29.93,NNE,30,0.0,0.0,73,0.00,,,0.00,0,Wunderground v.1.15,2013-07-10 07:50:00,
2013-07-10 03:00:00,77.4,68.5,29.93,NNE,30,0.0,0.0,74,0.00,,,0.00,0,Wunderground v.1.15,2013-07-10 08:00:00,
2013-07-10 03:10:00,77.0,68.5,29.94,NNE,30,0.0,0.0,75,0.00,,,0.00,0,Wunderground v.1.15,2013-07-10 08:10:00,
2013-07-10 03:20:00,76.7,68.6,29.94,NNE,30,0.0,0.0,76,0.00,,,0.00,0,Wunderground v.1.15,2013-07-10 08:20:00,
2013-07-10 03:30:00,76.3,68.6,29.94,NNE,30,0.0,0.0,77,0.00,,,0.00,0,Wunderground v.1.15,2013-07-10 08:30:00,
2013-07-10 03:40:00,75.8,68.8,29.93,NNE,30,0.0,0.0,79,0.00,,,0.00,0,Wunderground v.1.15,2013-07-10 08:40:00,
2013-07-10 03:50:00,75.3,68.3,29.94,NNE,30,0.0,0.0,79,0.00,,,0.00,0,Wunderground v.1.15,2013-07-10 08:50:00,
2013-07-10 04:00:00,74.9,67.9,29.94,NNE,30,0.0,0.0,79,0.00,,,0.00,0,Wunderground v.1.15,2013-07-10 09:00:00,
2013-07-10 04:10:00,74.6,68.0,29.94,NNE,30,0.0,0.0,80,0.00,,,0.00,0,Wunderground v.1.15,2013-07-10 09:10:00,
2013-07-10 04:20:00,74.4,67.8,29.94,NNE,30,0.0,0.0,80,0.00,,,0.00,0,Wunderground v.1.15,2013-07-10 09:20:00,
2013-07-10 04:29:00,74.0,67.8,29.94,NNE,30,0.0,0.0,81,0.00,,,0.00,0,Wunderground v.1.15,2013-07-10 09:29:00,
2013-07-10 04:40:00,73.3,67.5,29.95,NNE,30,0.0,0.0,82,0.00,,,0.00,0,Wunderground v.1.15,2013-07-10 09:40:00,
2013-07-10 04:50:00,72.8,67.3,29.95,NNE,30,0.0,0.0,83,0.00,,,0.00,0,Wunderground v.1.15,2013-07-10 09:50:00,
2013-07-10 05:00:00,72.7,67.2,29.95,NNE,30,0.0,0.0,83,0.00,,,0.00,0,Wunderground v.1.15,2013-07-10 10:00:00,
2013-07-10 05:10:00,72.3,66.8,29.95,NNE,30,0.0,0.0,83,0.00,,,0.00,0,Wunderground v.1.15,2013-07-10 10:10:00,
2013-07-10 05:20:00,72.3,66.8,29.95,NNE,30,0.0,0.0,83,0.00,,,0.00,0,Wunderground v.1.15,2013-07-10 10:20:00,
2013-07-10 05:30:00,72.3,66.5,29.95,NNE,25,0.0,0.0,82,0.00,,,0.00,0,Wunderground v.1.15,2013-07-10 10:30:00,
2013-07-10 05:40:00,72.1,66.3,29.96,NNE,26,0.0,0.0,82,0.00,,,0.00,0,Wunderground v.1.15,2013-07-10 10:40:00,
2013-07-10 05:50:00,71.8,66.4,29.96,NNE,26,0.0,0.0,83,0.00,,,0.00,0,Wunderground v.1.15,2013-07-10 10:50:00,
2013-07-10 06:00:00,71.3,66.2,29.96,NNE,26,0.0,0.0,84,0.00,,,0.00,0,Wunderground v.1.15,2013-07-10 11:00:00,
2013-07-10 06:10:00,70.9,66.2,29.96,NNE,26,0.0,0.0,85,0.00,,,0.00,7,Wunderground v.1.15,2013-07-10 11:10:00,
2013-07-10 06:20:00,70.9,66.2,29.97,NNE,25,0.0,0.0,85,0.00,,,0.00,14,Wunderground v.1.15,2013-07-10 11:20:00,
2013-07-10 06:30:00,70.9,66.5,29.97,NNE,25,0.0,0.0,86,0.00,,,0.00,19,Wunderground v.1.15,2013-07-10 11:30:00,
2013-07-10 06:40:00,71.3,66.9,29.97,NNE,26,0.0,0.0,86,0.00,,,0.00,21,Wunderground v.1.15,2013-07-10 11:40:00,
2013-07-10 06:50:00,71.8,67.0,29.97,NNE,26,0.0,0.0,85,0.00,,,0.00,26,Wunderground v.1.15,2013-07-10 11:50:00,
2013-07-10 06:59:00,72.5,67.0,29.97,NNE,26,0.0,0.0,83,0.00,,,0.00,28,Wunderground v.1.15,2013-07-10 11:59:00,
2013-07-10 07:09:00,72.7,66.9,29.97,NNE,26,0.0,0.0,82,0.00,,,0.00,30,Wunderground v.1.15,2013-07-10 12:09:00,
2013-07-10 07:20:00,73.2,67.0,29.97,NNE,26,0.0,0.0,81,0.00,,,0.00,33,Wunderground v.1.15,2013-07-10 12:20:00,
2013-07-10 07:30:00,73.5,66.9,29.97,NE,38,1.0,6.0,80,0.00,,,0.00,35,Wunderground v.1.15,2013-07-10 12:30:00,
2013-07-10 07:40:00,73.7,67.1,29.97,NNE,28,4.0,4.0,80,0.00,,,0.00,37,Wunderground v.1.15,2013-07-10 12:40:00,
2013-07-10 07:50:00,73.9,67.0,29.96,NE,38,5.0,5.0,79,0.00,,,0.00,39,Wunderground v.1.15,2013-07-10 12:50:00,
2013-07-10 08:00:00,73.9,66.6,29.96,NNE,20,7.0,7.0,78,0.00,,,0.00,60,Wunderground v.1.15,2013-07-10 13:00:00,
2013-07-10 08:10:00,74.0,66.3,29.96,North,360,6.0,8.0,77,0.00,,,0.00,137,Wunderground v.1.15,2013-07-10 13:10:00,
2013-07-10 08:20:00,74.2,66.5,29.97,NNE,23,6.0,6.0,77,0.00,,,0.00,260,Wunderground v.1.15,2013-07-10 13:20:00,
2013-07-10 08:30:00,74.4,66.3,29.97,NNE,24,6.0,9.0,76,0.00,,,0.00,343,Wunderground v.1.15,2013-07-10 13:30:00,
2013-07-10 08:40:00,74.7,66.2,29.97,NE,46,6.0,6.0,75,0.00,,,0.00,385,Wunderground v.1.15,2013-07-10 13:40:00,
2013-07-10 08:50:00,75.1,66.2,29.98,NNE,32,6.0,8.0,74,0.00,,,0.00,418,Wunderground v.1.15,2013-07-10 13:50:00,
2013-07-10 09:00:00,75.3,65.6,29.98,NE,49,7.0,10.0,72,0.00,,,0.00,445,Wunderground v.1.15,2013-07-10 14:00:00,
2013-07-10 09:10:00,75.6,65.9,29.99,NNE,14,7.0,7.0,72,0.00,,,0.00,478,Wunderground v.1.15,2013-07-10 14:10:00,
2013-07-10 09:20:00,76.3,65.8,29.99,NNE,26,4.0,4.0,70,0.00,,,0.00,508,Wunderground v.1.15,2013-07-10 14:20:00,
2013-07-10 09:30:00,76.5,65.1,29.99,NE,55,3.0,5.0,68,0.00,,,0.00,540,Wunderground v.1.15,2013-07-10 14:30:00,
2013-07-10 09:40:00,76.7,65.3,29.99,NE,37,6.0,6.0,68,0.00,,,0.00,566,Wunderground v.1.15,2013-07-10 14:40:00,
2013-07-10 09:50:00,77.0,65.2,30.00,NE,49,5.0,9.0,67,0.00,,,0.00,594,Wunderground v.1.15,2013-07-10 14:50:00,
2013-07-10 10:00:00,77.4,66.0,30.00,NE,35,5.0,9.0,68,0.00,,,0.00,621,Wunderground v.1.15,2013-07-10 15:00:00,
2013-07-10 10:10:00,77.6,65.8,30.00,NE,38,5.0,10.0,67,0.00,,,0.00,642,Wunderground v.1.15,2013-07-10 15:10:00,
2013-07-10 10:20:00,77.6,65.3,30.00,NE,40,6.0,6.0,66,0.00,,,0.00,670,Wunderground v.1.15,2013-07-10 15:20:00,
2013-07-10 10:30:00,77.7,65.0,30.00,NNE,33,6.0,7.0,65,0.00,,,0.00,689,Wunderground v.1.15,2013-07-10 15:30:00,
2013-07-10 10:40:00,78.1,64.9,30.00,NE,38,5.0,6.0,64,0.00,,,0.00,717,Wunderground v.1.15,2013-07-10 15:40:00,
2013-07-10 10:50:00,78.5,65.8,30.00,NNE,24,6.0,6.0,65,0.00,,,0.00,738,Wunderground v.1.15,2013-07-10 15:50:00,
2013-07-10 11:00:00,78.6,64.5,30.00,NE,48,7.0,7.0,62,0.00,,,0.00,763,Wunderground v.1.15,2013-07-10 16:00:00,
2013-07-10 11:10:00,79.0,65.8,30.01,NNE,22,5.0,5.0,64,0.00,,,0.00,780,Wunderground v.1.15,2013-07-10 16:10:00,
2013-07-10 11:20:00,79.4,64.8,30.02,NNE,22,4.0,4.0,61,0.00,,,0.00,800,Wunderground v.1.15,2013-07-10 16:20:00,
2013-07-10 11:30:00,79.8,64.7,30.02,North,360,5.0,5.0,60,0.00,,,0.00,821,Wunderground v.1.15,2013-07-10 16:30:00,
2013-07-10 11:40:00,80.1,65.9,30.02,NE,37,4.0,7.0,62,0.00,,,0.00,831,Wunderground v.1.15,2013-07-10 16:40:00,
2013-07-10 11:50:00,80.3,65.1,30.02,NNE,26,4.0,4.0,60,0.00,,,0.00,842,Wunderground v.1.15,2013-07-10 16:50:00,
2013-07-10 12:00:00,80.7,67.4,30.02,NE,44,1.0,5.0,64,0.00,,,0.00,863,Wunderground v.1.15,2013-07-10 17:00:00,
2013-07-10 12:09:00,80.7,65.5,30.02,NE,45,2.0,2.0,60,0.00,,,0.00,758,Wunderground v.1.15,2013-07-10 17:09:00,
2013-07-10 12:20:00,80.5,65.3,30.02,NE,44,2.0,2.0,60,0.00,,,0.00,889,Wunderground v.1.15,2013-07-10 17:20:00,
2013-07-10 12:30:00,80.7,66.5,30.02,NE,38,3.0,3.0,62,0.00,,,0.00,770,Wunderground v.1.15,2013-07-10 17:30:00,
2013-07-10 12:40:00,81.2,65.5,30.02,ENE,66,3.0,5.0,59,0.00,,,0.00,940,Wunderground v.1.15,2013-07-10 17:40:00,
2013-07-10 12:50:00,81.2,64.5,30.02,ENE,74,3.0,6.0,57,0.00,,,0.00,925,Wunderground v.1.15,2013-07-10 17:50:00,
2013-07-10 13:00:00,81.1,66.8,30.02,East,93,3.0,5.0,62,0.00,,,0.00,844,Wunderground v.1.15,2013-07-10 18:00:00,
2013-07-10 13:09:00,81.2,65.5,30.02,ENE,74,2.0,4.0,59,0.00,,,0.00,809,Wunderground v.1.15,2013-07-10 18:09:00,
2013-07-10 13:20:00,81.4,65.7,30.02,East,90,2.0,2.0,59,0.00,,,0.00,879,Wunderground v.1.15,2013-07-10 18:20:00,
2013-07-10 13:30:00,81.6,65.4,30.02,NE,38,3.0,3.0,58,0.00,,,0.00,905,Wunderground v.1.15,2013-07-10 18:30:00,
2013-07-10 13:40:00,82.0,64.2,30.03,East,88,1.0,2.0,55,0.00,,,0.00,789,Wunderground v.1.15,2013-07-10 18:40:00,
2013-07-10 13:50:00,82.0,64.2,30.03,ENE,74,1.0,1.0,55,0.00,,,0.00,772,Wunderground v.1.15,2013-07-10 18:50:00,
2013-07-10 14:00:00,82.2,64.9,30.03,East,90,2.0,5.0,56,0.00,,,0.00,761,Wunderground v.1.15,2013-07-10 19:00:00,
2013-07-10 14:10:00,82.0,64.8,30.03,East,90,1.0,1.0,56,0.00,,,0.00,858,Wunderground v.1.15,2013-07-10 19:10:00,
2013-07-10 14:19:00,82.4,64.6,30.02,ENE,63,0.0,0.0,55,0.00,,,0.00,538,Wunderground v.1.15,2013-07-10 19:19:00,
2013-07-10 14:30:00,82.6,63.7,30.02,NE,53,1.0,2.0,53,0.00,,,0.00,733,Wunderground v.1.15,2013-07-10 19:30:00,
2013-07-10 14:40:00,82.4,62.5,30.02,NE,50,1.0,1.0,51,0.00,,,0.00,647,Wunderground v.1.15,2013-07-10 19:40:00,
2013-07-10 14:49:00,82.6,63.2,30.02,East,89,1.0,1.0,52,0.00,,,0.00,670,Wunderground v.1.15,2013-07-10 19:49:00,
2013-07-10 15:00:00,83.0,63.6,30.02,ENE,57,1.0,1.0,52,0.00,,,0.00,383,Wunderground v.1.15,2013-07-10 20:00:00,
2013-07-10 15:10:00,82.8,62.8,30.01,NNE,33,3.0,3.0,51,0.00,,,0.00,610,Wunderground v.1.15,2013-07-10 20:10:00,
2013-07-10 15:19:00,82.8,64.5,30.01,NE,53,2.0,2.0,54,0.00,,,0.00,392,Wunderground v.1.15,2013-07-10 20:19:00,
2013-07-10 15:29:00,82.8,63.4,30.01,NE,53,0.0,0.0,52,0.00,,,0.00,563,Wunderground v.1.15,2013-07-10 20:29:00,
2013-07-10 15:40:00,83.0,63.0,30.01,NE,53,0.0,0.0,51,0.00,,,0.00,770,Wunderground v.1.15,2013-07-10 20:40:00,
2013-07-10 15:50:00,83.2,63.2,30.00,ENE,78,1.0,1.0,51,0.00,,,0.00,809,Wunderground v.1.15,2013-07-10 20:50:00,
2013-07-10 16:00:00,83.4,63.4,30.00,NE,39,2.0,5.0,51,0.00,,,0.00,754,Wunderground v.1.15,2013-07-10 21:00:00,
2013-07-10 16:10:00,83.4,65.5,30.00,NE,48,1.0,1.0,55,0.00,,,0.00,454,Wunderground v.1.15,2013-07-10 21:10:00,
2013-07-10 16:20:00,84.0,63.4,30.01,NE,48,0.0,0.0,50,0.00,,,0.00,619,Wunderground v.1.15,2013-07-10 21:20:00,
2013-07-10 16:30:00,84.0,62.8,30.01,ENE,64,0.0,0.0,49,0.00,,,0.00,385,Wunderground v.1.15,2013-07-10 21:30:00,
2013-07-10 16:40:00,83.8,64.8,30.00,ENE,64,0.0,0.0,53,0.00,,,0.00,524,Wunderground v.1.15,2013-07-10 21:40:00,
2013-07-10 16:49:00,83.8,63.7,29.99,ENE,64,0.0,0.0,51,0.00,,,0.00,411,Wunderground v.1.15,2013-07-10 21:49:00,
2013-07-10 17:00:00,83.0,64.1,29.99,ENE,61,1.0,1.0,53,0.00,,,0.00,359,Wunderground v.1.15,2013-07-10 22:00:00,
2013-07-10 17:10:00,83.0,65.7,29.99,NE,53,0.0,1.0,56,0.00,,,0.00,313,Wunderground v.1.15,2013-07-10 22:10:00,
2013-07-10 17:20:00,82.4,65.1,29.99,ENE,66,1.0,1.0,56,0.00,,,0.00,315,Wunderground v.1.15,2013-07-10 22:20:00,
2013-07-10 17:30:00,82.2,64.9,29.99,ENE,66,0.0,0.0,56,0.00,,,0.00,316,Wunderground v.1.15,2013-07-10 22:30:00,
2013-07-10 17:40:00,82.0,63.7,29.99,ENE,66,0.0,0.0,54,0.00,,,0.00,313,Wunderground v.1.15,2013-07-10 22:40:00,
2013-07-10 17:50:00,82.2,64.4,29.98,ENE,66,0.0,0.0,55,0.00,,,0.00,334,Wunderground v.1.15,2013-07-10 22:50:00,
2013-07-10 18:00:00,82.4,64.6,29.98,ENE,66,0.0,0.0,55,0.00,,,0.00,225,Wunderground v.1.15,2013-07-10 23:00:00,
2013-07-10 18:10:00,81.8,66.1,29.98,ENE,66,0.0,0.0,59,0.00,,,0.00,237,Wunderground v.1.15,2013-07-10 23:10:00,
2013-07-10 18:20:00,81.4,65.7,29.97,ENE,63,0.0,0.0,59,0.00,,,0.00,383,Wunderground v.1.15,2013-07-10 23:20:00,
2013-07-10 18:30:00,81.6,65.4,29.97,ENE,69,2.0,2.0,58,0.00,,,0.00,287,Wunderground v.1.15,2013-07-10 23:30:00,
2013-07-10 18:40:00,81.6,62.8,29.97,ENE,71,1.0,1.0,53,0.00,,,0.00,364,Wunderground v.1.15,2013-07-10 23:40:00,
2013-07-10 18:50:00,81.6,63.9,29.96,ENE,77,1.0,1.0,55,0.00,,,0.00,292,Wunderground v.1.15,2013-07-10 23:50:00,
2013-07-10 18:59:00,81.4,65.2,29.96,East,97,0.0,0.0,58,0.00,,,0.00,253,Wunderground v.1.15,2013-07-10 23:59:00,
2013-07-10 19:10:00,81.1,64.4,29.96,East,98,0.0,1.0,57,0.00,,,0.00,221,Wunderground v.1.15,2013-07-11 00:10:00,
2013-07-10 19:20:00,80.5,62.8,29.95,ESE,106,1.0,1.0,55,0.00,,,0.00,192,Wunderground v.1.15,2013-07-11 00:20:00,
2013-07-10 19:30:00,80.3,64.7,29.95,ESE,106,0.0,0.0,59,0.00,,,0.00,162,Wunderground v.1.15,2013-07-11 00:30:00,
2013-07-10 19:40:00,79.9,64.8,29.94,ESE,106,0.0,0.0,60,0.00,,,0.00,137,Wunderground v.1.15,2013-07-11 00:40:00,
2013-07-10 19:50:00,79.4,63.8,29.94,ESE,105,0.0,0.0,59,0.00,,,0.00,113,Wunderground v.1.15,2013-07-11 00:50:00,
2013-07-10 20:00:00,78.8,63.7,29.94,ESE,105,0.0,0.0,60,0.00,,,0.00,88,Wunderground v.1.15,2013-07-11 01:00:00,
2013-07-10 20:10:00,78.3,64.2,29.94,ESE,105,0.0,0.0,62,0.00,,,0.00,63,Wunderground v.1.15,2013-07-11 01:10:00,
2013-07-10 20:20:00,77.9,63.8,29.95,SE,140,0.0,0.0,62,0.00,,,0.00,26,Wunderground v.1.15,2013-07-11 01:20:00,
2013-07-10 20:30:00,77.2,64.1,29.95,SE,140,0.0,0.0,64,0.00,,,0.00,21,Wunderground v.1.15,2013-07-11 01:30:00,
2013-07-10 21:10:00,73.5,65.1,29.97,SE,140,0.0,0.0,75,0.00,,,0.00,0,Wunderground v.1.15,2013-07-11 02:10:00,
2013-07-10 21:20:00,72.7,64.7,29.96,SE,140,0.0,0.0,76,0.00,,,0.00,0,Wunderground v.1.15,2013-07-11 02:20:00,
2013-07-10 21:30:00,72.1,64.9,29.96,SE,140,0.0,0.0,78,0.00,,,0.00,0,Wunderground v.1.15,2013-07-11 02:30:00,
2013-07-10 21:40:00,71.3,64.8,29.98,SE,140,0.0,0.0,80,0.00,,,0.00,0,Wunderground v.1.15,2013-07-11 02:40:00,
2013-07-10 21:50:00,70.6,64.5,29.98,SE,140,0.0,0.0,81,0.00,,,0.00,0,Wunderground v.1.15,2013-07-11 02:50:00,
2013-07-10 22:00:00,70.1,64.3,29.98,SE,140,0.0,0.0,82,0.00,,,0.00,0,Wunderground v.1.15,2013-07-11 03:00:00,
2013-07-10 22:10:00,69.6,64.2,29.98,SE,140,0.0,0.0,83,0.00,,,0.00,0,Wunderground v.1.15,2013-07-11 03:10:00,
2013-07-10 22:20:00,68.9,64.2,29.98,SE,140,0.0,0.0,85,0.00,,,0.00,0,Wunderground v.1.15,2013-07-11 03:20:00,
2013-07-10 22:30:00,68.4,64.0,29.98,SE,140,0.0,0.0,86,0.00,,,0.00,0,Wunderground v.1.15,2013-07-11 03:30:00,
2013-07-10 22:40:00,68.1,63.8,29.99,SE,140,0.0,0.0,86,0.00,,,0.00,0,Wunderground v.1.15,2013-07-11 03:40:00,
2013-07-10 22:50:00,67.8,63.5,30.00,SE,140,0.0,0.0,86,0.00,,,0.00,0,Wunderground v.1.15,2013-07-11 03:50:00,
2013-07-10 23:00:00,67.1,63.4,30.00,SE,140,0.0,0.0,88,0.00,,,0.00,0,Wunderground v.1.15,2013-07-11 04:00:00,
2013-07-10 23:10:00,66.9,63.2,30.00,SE,140,0.0,0.0,88,0.00,,,0.00,0,Wunderground v.1.15,2013-07-11 04:10:00,
2013-07-10 23:20:00,66.9,63.2,30.01,SE,140,0.0,0.0,88,0.00,,,0.00,0,Wunderground v.1.15,2013-07-11 04:20:00,
2013-07-10 23:30:00,66.9,63.6,30.01,SE,140,0.0,0.0,89,0.00,,,0.00,0,Wunderground v.1.15,2013-07-11 04:30:00,
2013-07-10 23:40:00,66.9,63.2,30.01,SE,140,0.0,0.0,88,0.00,,,0.00,0,Wunderground v.1.15,2013-07-11 04:40:00,
2013-07-10 23:50:00,66.4,63.1,30.01,SE,140,0.0,0.0,89,0.00,,,0.00,0,Wunderground v.1.15,2013-07-11 04:50:00,